Regional Weather Roundup
Issued by NWS

Home | Current Version | Previous Version | Text Only | Print | Product List | Glossary Off
Versions: 1 2 3 4 5 6 7 8 9 10 11 12 13 14 15 16 17 18 19 20 21 22 23 24 25 26 27 28 29 30 31 32 33 34 35 36 37 38 39 40 41 42 43 44 45 46 47 48 49 50

000
ASUS43 KIND 230009
RWRIN

WEATHER ROUNDUP FOR INDIANA
NATIONAL WEATHER SERVICE INDIANAPOLIS IN
700 PM EST MON DEC 22 2014

NOTE: "FAIR" INDICATES FEW OR NO CLOUDS BELOW 12,000 FEET WITH NO
SIGNIFICANT WEATHER AND/OR OBSTRUCTIONS TO VISIBILITY.

* - STATION DOES NOT REPORT WEATHER SUCH AS PRECIPITATION OR FOG.

+ - STATION NOT QUALITY CONTROLLED BY THE NATIONAL WEATHER SERVICE.
    USE DATA WITH CAUTION...ESPECIALLY DEWPOINT AND RELATIVE
    HUMIDITY OBSERVATIONS.

INZ001>003-010>013-019-020-230100-
NORTHWEST INDIANA

CITY           SKY/WX    TMP DP  RH WIND       PRES   REMARKS
GARY /AIRPORT/ LGT RAIN  41  37  87 SE9       29.70
KNOX *+        CLOUDY    37  34  87 E15       29.72F
LA PORTE +     LGT RAIN  38  38 100 E10       29.73F
6HR MIN TEMP:  37; 6HR MAX TEMP:  38; 6HR PCP:  0.03;

MICHIGAN CITY+ DRIZZLE   37  36  93 SE9       29.73F
MONTICELLO +   RAIN      39  37  95 E8        29.71F
RENSSELAER +   RAIN      39  39 100 E20       29.70S
VALPARAISO     LGT RAIN  37  37 100 E12       29.71F FOG
6HR MIN TEMP:  35; 6HR MAX TEMP:  38; 6HR PCP:  0.07;


$$

LMZ046-743>745-230100-
SOUTHERN LAKE MICHIGAN

STATION/POSITION TIME  TEMP WIND        PRES
                       AIR  DIR/SP/G
                 (UTC) (F)  (DEG/KT/KT) (MB)

$$

INZ004-005-014>016-021>024-230100-
NORTH CENTRAL INDIANA

CITY           SKY/WX    TMP DP  RH WIND       PRES   REMARKS
ELKHART        RAIN      37  32  81 E12       29.79S
GOSHEN         LGT RAIN  37  33  85 E13       29.79S FOG
6HR MIN TEMP:  36; 6HR MAX TEMP:  37; 6HR PCP:  0.01;

LOGANSPORT +   LGT RAIN  37  36  93 E10       29.74S
PERU/GRISSOM   LGT RAIN  39  39 100 E8        29.74F
6HR MIN TEMP:  37; 6HR MAX TEMP:  39; 6HR PCP:  0.02;

ROCHESTER +    LGT RAIN  39  37  93 E9        29.76F
SOUTH BEND     LGT RAIN  38  35  89 SE17      29.77F FOG
6HR MIN TEMP:  35; 6HR MAX TEMP:  38; 6HR PCP:  0.03;

WARSAW +       LGT RAIN  36  34  93 E13       29.77F

$$

INZ006>009-017-018-025>027-230100-
NORTHEAST INDIANA

CITY           SKY/WX    TMP DP  RH WIND       PRES   REMARKS
ANGOLA *+      MOCLDY    34  30  86 SE13      29.82R WCI  25
AUBURN +       DRIZZLE   36  32  87 E10G16    29.82F
FORT WAYNE     LGT RAIN  37  34  89 E9        29.81F FOG
6HR MIN TEMP:  35; 6HR MAX TEMP:  38; 6HR PCP: TRACE;

HUNTINGTON +   LGT RAIN  37  36  96 E7        29.78F
6HR MIN TEMP:  35; 6HR MAX TEMP:  38;


$$

INZ028-029-035-036-043>045-051>053-230100-
WEST CENTRAL INDIANA

CITY           SKY/WX    TMP DP  RH WIND       PRES   REMARKS
GREENCASTLE +  CLOUDY    43  37  81 SE8       29.70S
LAFAYETTE      LGT RAIN  41  39  93 E10       29.70F
6HR MIN TEMP:  38; 6HR MAX TEMP:  41; 6HR PCP:  0.02;

TERRE HAUTE    LGT RAIN  45  42  89 SE12      29.66F
6HR MIN TEMP:  43; 6HR MAX TEMP:  47; 6HR PCP:  0.14;


$$

INZ030>032-037>040-046>048-054>057-064-065-230100-
CENTRAL INDIANA

CITY           SKY/WX    TMP DP  RH WIND       PRES   REMARKS
CP ATTERBURY + CLOUDY    45  41  87 MISG      29.74F
FRANKFORT +    LGT RAIN  40  40 100 E15       29.72F
GREENWOOD *+   CLOUDY    43  36  75 SE6       29.74
INDIANAPOLIS   LGT RAIN  42  38  85 SE15      29.70F
6HR MIN TEMP:  39; 6HR MAX TEMP:  44; 6HR PCP:  0.04;

-EAGLE CREEK   CLOUDY    43  39  86 SE7       29.71F
6HR MIN TEMP:  40; 6HR MAX TEMP:  45; 6HR PCP:  0.02;

KOKOMO *+      CLOUDY    39  36  87 SE10      29.75R
MARION +       CLOUDY    39  36  86 E10       29.76F
MT COMFORT *+  CLOUDY    41  34  75 E8        29.74F
SHELBYVILLE    CLOUDY    44  37  76 E12       29.72F
6HR MIN TEMP:  43; 6HR MAX TEMP:  46;

ZIONSVILLE +   LGT RAIN  41  36  83 E13G20    29.72F
6HR MIN TEMP:  39; 6HR MAX TEMP:  43; 6HR PCP:  0.02;


$$

INZ033-034-041-042-049-050-058-059-230100-
EAST CENTRAL INDIANA

CITY           SKY/WX    TMP DP  RH WIND       PRES   REMARKS
MUNCIE         CLOUDY    40  36  86 E6        29.77F
6HR MIN TEMP:  39; 6HR MAX TEMP:  43; 6HR PCP: TRACE;


$$

INZ060-061-067>069-081>083-085>088-230100-
SOUTHWEST INDIANA

CITY           SKY/WX    TMP DP  RH WIND       PRES   REMARKS
EVANSVILLE     CLOUDY    52  46  80 SE8       29.66F
6HR MIN TEMP:  50; 6HR MAX TEMP:  52; 6HR PCP:  0.10;

HUNTINGBURG *+ CLOUDY    50  45  81 SE13      29.68F
6HR MIN TEMP:  48; 6HR MAX TEMP:  50;

WASHINGTON +   CLOUDY    47  43  84 SE12      29.66F
6HR MIN TEMP:  46; 6HR MAX TEMP:  49; 6HR PCP:  0.04;


$$

INZ062-063-066-070>080-084-089>092-230100-
SOUTH CENTRAL AND SOUTHEAST INDIANA

CITY           SKY/WX    TMP DP  RH WIND       PRES   REMARKS
BLOOMINGTON    LGT RAIN  45  43  93 SE8       29.70S
6HR MIN TEMP:  42; 6HR MAX TEMP:  45; 6HR PCP:  0.04;


$$




USA.gov is the U.S. government's official web portal to all federal, state and local government web resources and services.